COSMOS 2413 (712) 1 28509U 04053B 10251.64260344 .00000029 00000-0 10000-3 0 5838 2 28509 63.5933 265.4723 0006558 183.2138 227.1156 2.13098245 44370 COSMOS 2419 (714) 1 28915U 05050A 10251.60887450 .00000031 00000-0 10000-3 0 3130 2 28915 64.8640 148.9545 0007686 339.8323 59.0371 2.13074971 36625 COSMOS 2425 (716) 1 29670U 06062A 10252.06201906 -.00000048 00000-0 10000-3 0 237 2 29670 65.6323 27.7948 0020840 352.8040 36.2158 2.13100998 28833 COSMOS 2426 (717) 1 29671U 06062B 10251.91650334 -.00000047 00000-0 10000-3 0 413 2 29671 65.6482 27.8372 0020053 164.7433 340.7561 2.13103530 28830 COSMOS 2424 (715) 1 29672U 06062C 10252.05022547 -.00000048 00000-0 10000-3 0 511 2 29672 65.6346 27.8001 0017830 163.5303 264.8336 2.13103632 28830 COSMOS 2433 (720) 1 32275U 07052A 10252.33716431 .00000032 00000-0 00000+0 0 7858 2 32275 64.8773 148.6721 0002421 271.2597 164.0955 2.13102398 22358 COSMOS 2432 (719) 1 32276U 07052B 10251.64181522 .00000031 00000-0 10000-3 0 7628 2 32276 64.8910 148.7262 0014396 340.3244 235.6029 2.13102224 22337 COSMOS 2431 (718) 1 32277U 07052C 10252.14443208 .00000032 00000-0 00000+0 0 7702 2 32277 64.8935 148.7050 0018282 192.0368 185.0528 2.13102307 22432 COSMOS 2434 (721) 1 32393U 07065A 10251.54526013 -.00000046 00000-0 00000+0 0 6147 2 32393 65.2550 28.1285 0006620 126.7038 317.1067 2.13103177 21049 COSMOS 2435 (722) 1 32394U 07065B 10251.64768131 -.00000047 00000-0 00000+0 0 5160 2 32394 65.2546 28.1278 0004160 106.4041 236.6867 2.13103273 20974 COSMOS 2436 (723) 1 32395U 07065C 10251.98491441 -.00000048 00000-0 10000-3 0 5330 2 32395 65.2678 28.1236 0015685 0.2633 151.9506 2.13103312 20981 COSMOS 2442 (724) 1 33378U 08046A 10252.32059203 .00000032 00000-0 10000-3 0 5575 2 33378 64.7903 148.2666 0027234 335.8114 131.3083 2.13102422 15216 COSMOS 2443 (725) 1 33379U 08046B 10252.86641069 .00000031 00000-0 10000-3 0 5470 2 33379 64.7985 148.2877 0020470 183.2521 208.2027 2.13102496 15238 COSMOS 2444 (726) 1 33380U 08046C 10252.67407017 .00000032 00000-0 10000-3 0 5475 2 33380 64.8077 148.3076 0028564 328.5094 230.6825 2.13102942 15215 COSMOS 2447 (727) 1 33466U 08067A 10251.52723441 .00000031 00000-0 00000+0 0 4897 2 33466 64.4448 268.7513 0006460 248.4616 253.9919 2.13101885 13251 COSMOS 2449 (729) 1 33467U 08067B 10251.37251205 .00000033 00000-0 00000+0 0 4932 2 33467 64.4337 268.7378 0006106 260.4297 258.8726 2.13102025 13273 COSMOS 2448 (728) 1 33468U 08067C 10251.47049025 .00000031 00000-0 00000+0 0 4858 2 33468 64.4374 268.7377 0006360 280.0829 223.3237 2.13101612 13269 COSMOS 2456 (730) 1 36111U 09070A 10251.41762668 .00000033 00000-0 00000+0 0 2377 2 36111 64.6703 268.6956 0005841 287.8420 221.3862 2.13101910 5705 COSMOS 2457 (733) 1 36112U 09070B 10252.52318243 .00000022 00000-0 00000+0 0 2252 2 36112 64.6535 268.6266 0014417 163.5025 338.9796 2.13101897 5731 COSMOS 2458 (734) 1 36113U 09070C 10251.65659992 .00000030 00000-0 10000-3 0 2204 2 36113 64.6576 268.6526 0001934 241.3573 271.3212 2.13102029 5718 COSMOS 2459 (731) 1 36400U 10007A 10252.67407020 .00000032 00000-0 10000-3 0 1684 2 36400 64.7754 148.0971 0033260 352.4515 206.2446 2.13102826 4088 COSMOS 2461 (735) 1 36401U 10007B 10251.65427449 .00000032 00000-0 10000-3 0 1656 2 36401 64.7682 148.1293 0004749 96.3809 310.1321 2.13102890 4063 COSMOS 2460 (732) 1 36402U 10007C 10252.22760547 .00000033 00000-0 10000-3 0 1718 2 36402 64.7583 148.1137 0000637 206.8573 324.2989 2.13102449 4076